Regional Weather Roundup
Issued by NWS

Home | Current Version | Previous Version | Graphics & Text | Print | Product List | Glossary On
Versions: 1 2 3 4 5 6 7 8 9 10 11 12 13 14 15 16 17 18 19 20 21 22 23 24 25 26 27 28 29 30 31 32 33 34 35 36 37 38 39 40 41 42 43 44 45 46 47 48 49 50
664
ASUS43 KFSD 250502
RWRSD

WEATHER ROUNDUP FOR SOUTH DAKOTA
NATIONAL WEATHER SERVICE SIOUX FALLS SD
1200 AM CDT TUE JUL 25 2017

NOTE: "FAIR" INDICATES FEW OR NO CLOUDS BELOW 12,000 FEET WITH NO
SIGNIFICANT WEATHER AND/OR OBSTRUCTIONS TO VISIBILITY.


SDZ001>005-009-010-012>017-250600-
NORTHWEST AND NORTH CENTRAL SOUTH DAKOTA

CITY           SKY/WX    TMP DP  RH WIND       PRES   REMARKS
BUFFALO          N/A     78  54  43 N10       29.83R
FAITH            N/A     74  66  76 E15       29.83S
MOBRIDGE       CLEAR     74  66  76 SE10      29.81R
$$

SDZ012>016-024>037-041>051-057-063-072>074-250600-
SOUTHWEST AND SOUTH CENTRAL SOUTH DAKOTA

CITY           SKY/WX    TMP DP  RH WIND       PRES   REMARKS
RAPID CTY ARPT CLEAR     77  55  46 SE5       29.87R
PIERRE         CLEAR     75  62  64 E5        29.80R
CUSTER         CLEAR     72  43  35 E12       30.07R
ELLSWORTH AFB  CLEAR     81  53  37 E5        29.87R
PHILIP         CLEAR     75  60  59 SE5       29.80R
PINE RIDGE     CLEAR     77  55  46 SW7       29.90R
SPEARFISH      FAIR      77  50  38 SE12      29.92S
WINNER         FAIR      80  66  62 S29G40    29.84R
$$

SDZ004>011-016>023-039-040-250600-
NORTHEAST SOUTH DAKOTA

CITY           SKY/WX    TMP DP  RH WIND       PRES   REMARKS
ABERDEEN       CLOUDY    73  67  81 E15       29.87R
WATERTOWN      CLOUDY    72  65  78 E6        29.95R
BROOKINGS      CLOUDY    71  64  78 SE15      29.93R
SISSETON         N/A     70  67  90 S14       29.91R
$$

SDZ017-020-022-023-036>040-048>070-250600-
SOUTHEAST SOUTH DAKOTA

CITY           SKY/WX    TMP DP  RH WIND       PRES   REMARKS
SIOUX FALLS    CLOUDY    74  66  76 S15G26    29.92S
HURON          CLEAR     75  66  73 SE16G23   29.82F
CHAMBERLAIN    CLEAR     85  68  57 S28G37    29.80R
MITCHELL       PTCLDY    78  67  68 SE17G25   29.83F
YANKTON        CLOUDY    77  67  71 S16G22    29.90S
$$

ABBREVIATIONS USED IN REMARKS
   TC - TEMPERATURE IN CELSIUS
  WCI - WIND CHILL INDEX
   HX - HEAT INDEX
  VSB - VISIBILITY





USA.gov is the U.S. government's official web portal to all federal, state and local government web resources and services.